When you browse on this site, cookies collect data to enhance your experience and personalize the content and advertising you see.
Visit our Privacy Policy to learn more. By continuing to use the site, you agree to this use of cookies and data.
  • In Austria
  • List of Countries
  • For 7 days
  • Water Temperature
  • Satellite Maps
  • Weather Map
  • News
  • Weather Widgets
  • user-avatar
    Login

    Hourly Weather Kuznik

    Today, 21 February, Thursday

    Time Temperature Precipitation Wind Pressure Humidity
    00:00 +6°C° 0 mm 2 mps 762 mmHg 87%
    01:00 +5°C° 0 mm 2 mps 761 mmHg 91%
    02:00 +5°C° 0 mm 2 mps 761 mmHg 89%
    03:00 +4°C° 0 mm 3 mps 761 mmHg 88%
    04:00 +4°C° 0 mm 3 mps 761 mmHg 87%
    05:00 +4°C° 0 mm 3 mps 761 mmHg 86%
    06:00 +4°C° 0 mm 3 mps 761 mmHg 86%
    07:00 +4°C° 0 mm 4 mps 761 mmHg 86%
    08:00 +5°C° 0.1 mm 4 mps 761 mmHg 84%
    09:00 +5°C° 0.1 mm 4 mps 761 mmHg 82%
    10:00 +6°C° 0.1 mm 4 mps 761 mmHg 80%
    11:00 +6°C° 0.2 mm 5 mps 760 mmHg 80%
    12:00 +6°C° 0.2 mm 5 mps 760 mmHg 80%
    13:00 +5°C° 0.2 mm 6 mps 760 mmHg 80%
    14:00 +7°C° 0.2 mm 5 mps 760 mmHg 80%
    15:00 +7°C° 0.2 mm 5 mps 760 mmHg 80%
    16:00 +7°C° 0.2 mm 5 mps 760 mmHg 80%
    17:00 +7°C° 0.2 mm 5 mps 760 mmHg 83%
    18:00 +7°C° 0.2 mm 5 mps 759 mmHg 85%
    19:00 +7°C° 0.2 mm 5 mps 759 mmHg 88%
    20:00 +7°C° 0.4 mm 5 mps 759 mmHg 89%
    21:00 +7°C° 0.4 mm 4 mps 760 mmHg 90%
    22:00 +7°C° 0.4 mm 4 mps 760 mmHg 91%
    23:00 +7°C° 0.2 mm 4 mps 760 mmHg 91%

    Tomorrow, 22 February, Friday

    Time Temperature Precipitation Wind Pressure Humidity
    00:00 +7°C° 0.2 mm 5 mps 761 mmHg 90%
    01:00 +7°C° 0.2 mm 5 mps 761 mmHg 90%
    02:00 +6°C° 0.3 mm 5 mps 762 mmHg 87%
    03:00 +4°C° 0.3 mm 6 mps 763 mmHg 84%
    04:00 +3°C° 0.3 mm 6 mps 763 mmHg 82%
    05:00 +2°C° 0 mm 6 mps 765 mmHg 79%
    06:00 -1°C° 0 mm 6 mps 766 mmHg 77%
    07:00 -1°C° 0 mm 5 mps 767 mmHg 74%
    08:00 -1°C° 0 mm 5 mps 769 mmHg 68%
    09:00 -1°C° 0 mm 5 mps 770 mmHg 61%
    10:00 -1°C° 0 mm 4 mps 771 mmHg 54%
    11:00 0°C° 0 mm 4 mps 771 mmHg 50%
    12:00 0°C° 0 mm 4 mps 772 mmHg 47%
    13:00 +1°C° 0 mm 4 mps 773 mmHg 43%
    14:00 +2°C° 0 mm 3 mps 773 mmHg 43%
    15:00 +2°C° 0 mm 3 mps 773 mmHg 42%
    16:00 +2°C° 0 mm 3 mps 774 mmHg 42%
    17:00 +1°C° 0 mm 3 mps 774 mmHg 46%
    18:00 +1°C° 0 mm 2 mps 775 mmHg 49%
    19:00 -1°C° 0 mm 2 mps 775 mmHg 53%
    20:00 -2°C° 0 mm 2 mps 775 mmHg 53%
    21:00 -2°C° 0 mm 2 mps 776 mmHg 53%
    22:00 -2°C° 0 mm 2 mps 776 mmHg 53%
    23:00 -2°C° 0 mm 2 mps 776 mmHg 52%

    Day after tomorrow, 23 February, Saturday

    Time Temperature Precipitation Wind Pressure Humidity
    00:00 -2°C° 0 mm 2 mps 776 mmHg 52%
    01:00 -2°C° 0 mm 2 mps 777 mmHg 51%
    02:00 -3°C° 0 mm 2 mps 776 mmHg 50%
    03:00 -3°C° 0 mm 2 mps 776 mmHg 50%
    04:00 -3°C° 0 mm 2 mps 776 mmHg 50%
    05:00 -1°C° 0 mm 1 mps 776 mmHg 50%
    06:00 -1°C° 0 mm 1 mps 776 mmHg 50%
    07:00 -1°C° 0 mm 1 mps 776 mmHg 51%
    08:00 0°C° 0 mm 1 mps 777 mmHg 46%
    09:00 +1°C° 0 mm 1 mps 777 mmHg 41%
    10:00 +1°C° 0 mm 2 mps 777 mmHg 36%
    11:00 +1°C° 0 mm 2 mps 777 mmHg 32%
    12:00 +2°C° 0 mm 2 mps 776 mmHg 29%
    13:00 +3°C° 0 mm 2 mps 776 mmHg 26%
    14:00 +4°C° 0 mm 1 mps 776 mmHg 27%
    15:00 +4°C° 0 mm 1 mps 776 mmHg 27%
    16:00 +4°C° 0 mm 1 mps 775 mmHg 28%
    17:00 +3°C° 0 mm 1 mps 775 mmHg 30%
    18:00 +2°C° 0 mm 1 mps 775 mmHg 33%
    19:00 +1°C° 0 mm 1 mps 775 mmHg 35%
    20:00 +1°C° 0 mm 1 mps 775 mmHg 36%
    21:00 +1°C° 0 mm 1 mps 775 mmHg 37%
    22:00 +1°C° 0 mm 1 mps 774 mmHg 37%
    23:00 +1°C° 0 mm 1 mps 774 mmHg 37%

    24 February, Sunday

    Time Temperature Precipitation Wind Pressure Humidity
    00:00 +1°C° 0 mm 1 mps 774 mmHg 37%
    01:00 +1°C° 0 mm 1 mps 774 mmHg 37%
    02:00 +1°C° 0 mm 1 mps 774 mmHg 37%
    03:00 +1°C° 0 mm 1 mps 774 mmHg 38%
    04:00 +1°C° 0 mm 1 mps 773 mmHg 38%
    05:00 +1°C° 0 mm 1 mps 773 mmHg 38%
    06:00 +1°C° 0 mm 1 mps 773 mmHg 38%
    07:00 +1°C° 0 mm 1 mps 773 mmHg 38%
    08:00 +1°C° 0 mm 2 mps 773 mmHg 36%
    09:00 +2°C° 0 mm 2 mps 773 mmHg 34%
    10:00 +3°C° 0 mm 3 mps 773 mmHg 33%
    11:00 +4°C° 0 mm 3 mps 772 mmHg 34%
    12:00 +5°C° 0 mm 3 mps 772 mmHg 36%
    13:00 +7°C° 0 mm 3 mps 772 mmHg 37%
    14:00 +7°C° 0 mm 3 mps 772 mmHg 42%
    15:00 +7°C° 0 mm 2 mps 772 mmHg 47%
    16:00 +7°C° 0 mm 2 mps 771 mmHg 52%
    17:00 +6°C° 0 mm 2 mps 772 mmHg 58%
    18:00 +5°C° 0 mm 2 mps 772 mmHg 63%
    19:00 +4°C° 0 mm 2 mps 772 mmHg 69%
    20:00 +3°C° 0 mm 2 mps 772 mmHg 71%
    21:00 +3°C° 0 mm 2 mps 772 mmHg 74%
    22:00 +3°C° 0 mm 2 mps 772 mmHg 76%
    23:00 +2°C° 0 mm 2 mps 772 mmHg 78%

    25 February, Monday

    Time Temperature Precipitation Wind Pressure Humidity
    00:00 +2°C° 0 mm 2 mps 772 mmHg 79%
    01:00 +2°C° 0 mm 2 mps 772 mmHg 80%
    02:00 +1°C° 0 mm 2 mps 772 mmHg 82%
    03:00 +1°C° 0 mm 2 mps 772 mmHg 83%
    04:00 +1°C° 0 mm 2 mps 772 mmHg 85%
    05:00 +1°C° 0 mm 2 mps 772 mmHg 87%
    06:00 +1°C° 0 mm 2 mps 772 mmHg 90%
    07:00 +2°C° 0 mm 1 mps 772 mmHg 93%
    08:00 +2°C° 0 mm 2 mps 772 mmHg 88%
    09:00 +4°C° 0 mm 2 mps 773 mmHg 84%
    10:00 +5°C° 0 mm 2 mps 773 mmHg 80%
    11:00 +7°C° 0 mm 2 mps 773 mmHg 74%
    12:00 +8°C° 0 mm 2 mps 773 mmHg 68%
    13:00 +10°C° 0 mm 1 mps 773 mmHg 63%
    14:00 +10°C° 0 mm 1 mps 772 mmHg 63%
    15:00 +10°C° 0 mm 0 mps 772 mmHg 63%
    16:00 +10°C° 0 mm 0 mps 772 mmHg 63%
    17:00 +8°C° 0 mm 0 mps 772 mmHg 67%
    18:00 +7°C° 0 mm 0 mps 772 mmHg 72%
    19:00 +6°C° 0 mm 0 mps 772 mmHg 77%
    20:00 +6°C° 0 mm 0 mps 772 mmHg 80%
    21:00 +5°C° 0 mm 0 mps 772 mmHg 82%
    22:00 +5°C° 0 mm 0 mps 772 mmHg 84%
    23:00 +5°C° 0 mm 1 mps 771 mmHg 85%

    26 February, Tuesday

    Time Temperature Precipitation Wind Pressure Humidity
    00:00 +5°C° 0 mm 1 mps 771 mmHg 87%
    01:00 +5°C° 0 mm 1 mps 771 mmHg 89%
    02:00 +4°C° 0 mm 2 mps 770 mmHg 90%
    03:00 +3°C° 0 mm 2 mps 770 mmHg 91%
    04:00 +3°C° 0 mm 2 mps 769 mmHg 93%
    05:00 +3°C° 0 mm 2 mps 769 mmHg 93%
    06:00 +3°C° 0 mm 2 mps 769 mmHg 94%
    07:00 +3°C° 0 mm 2 mps 768 mmHg 94%
    08:00 +3°C° 0 mm 3 mps 768 mmHg 86%
    09:00 +5°C° 0 mm 3 mps 768 mmHg 77%
    10:00 +6°C° 0 mm 4 mps 768 mmHg 69%
    11:00 +8°C° 0 mm 4 mps 767 mmHg 63%
    12:00 +10°C° 0 mm 4 mps 767 mmHg 58%
    13:00 +10°C° 0 mm 5 mps 767 mmHg 53%
    14:00 +10°C° 0 mm 5 mps 766 mmHg 54%
    15:00 +12°C° 0 mm 5 mps 766 mmHg 55%
    16:00 +12°C° 0 mm 5 mps 766 mmHg 55%
    17:00 +11°C° 0 mm 4 mps 766 mmHg 62%
    18:00 +8°C° 0 mm 4 mps 766 mmHg 68%
    19:00 +8°C° 0 mm 3 mps 766 mmHg 74%
    20:00 +7°C° 0 mm 3 mps 766 mmHg 79%
    21:00 +6°C° 0 mm 2 mps 766 mmHg 83%
    22:00 +6°C° 0 mm 2 mps 766 mmHg 88%
    23:00 +5°C° 0 mm 2 mps 766 mmHg 91%
    Show more